Regional Weather Roundup
Issued by NWS

Home | Current Version | Previous Version | Text Only | Print | Product List | Glossary On
Versions: 1 2 3 4 5 6 7 8 9 10 11 12 13 14 15 16 17 18 19 20 21 22 23 24 25 26 27 28 29 30 31 32 33 34 35 36 37 38 39 40 41 42 43 44 45 46 47 48 49 50
000
ASUS43 KLMK 272202
RWRKY
KENTUCKY REGIONAL WEATHER ROUNDUP
NATIONAL WEATHER SERVICE LOUISVILLE KY
600 PM EDT FRI MAY 27 2016

NOTE "FAIR" INDICATES FEW OR NO CLOUDS BELOW 12,000 FEET
WITH NO SIGNIFICANT WEATHER AND/OR OBSTRUCTIONS TO VISIBILITY.

KYZ001>023-026-027-061>063-070>075-272300-
WESTERN AND SOUTH CENTRAL KENTUCKY

CITY           SKY/WX    TMP DP  RH WIND       PRES   REMARKS
PADUCAH        CLOUDY    79  66  64 S9        29.88S
HENDERSON      MOSUNNY   84  63  48 S17G23    29.89S
OWENSBORO      SUNNY     86  64  47 S20G25    29.92F
HOPKINSVILLE   NOT AVBL
BOWLING GREEN  MOSUNNY   85  66  53 S10       29.95F
GLASGOW        NOT AVBL
$$

KYZ024-025-028>034-038-045-046-053-272300-
NORTH CENTRAL KENTUCKY

CITY           SKY/WX    TMP DP  RH WIND       PRES   REMARKS
LOUISVILLE/SDF PTSUNNY   86  63  45 S16       29.95F
LOUISVILLE/LOU MOSUNNY   86  64  47 S12       29.96F
FORT KNOX      SUNNY     85  66  52 S13       29.94F
$$

KYZ035>037-039>044-047>052-055>060-089>105-272300-
NORTHEAST KENTUCKY

CITY           SKY/WX    TMP DP  RH WIND       PRES   REMARKS
LEXINGTON      CLOUDY    84  65  52 SW9       30.00F
COVINGTON      PTSUNNY   84  64  50 SW10      29.98F
FRANKFORT      SUNNY     84  64  50 SW9       29.98F
$$

KYZ054-064>069-076>088-106>120-272300-
SOUTHEAST KENTUCKY

CITY           SKY/WX    TMP DP  RH WIND       PRES   REMARKS
JACKSON        PTSUNNY   77  64  64 SE8G17    30.06R
LONDON         CLOUDY    83  62  49 S5        30.02F
SOMERSET       NOT AVBL
MIDDLESBORO    NOT AVBL
MONTICELLO     HVY RAIN  72  63  73 SE16G22   30.02F
$$




USA.gov is the U.S. government's official web portal to all federal, state and local government web resources and services.